Location: Newark
(42.0333°N, 13.0667°E)
Time: 17:53:36
(UTC+00:00)

ISS - Pass Details

Date: 27 November 2019
Orbit: 411 x 421 km, 51.6° (Epoch: 16 December)

Event Time Altitude Azimuth Distance (km) Brightness Sun altitude
Rises 18:12:42 0° 291° (WNW) 2,361 1.0 -28.1°
Reaches altitude 10° 18:15:22 10° 313° (NW) 1,500 -0.5 -28.6°
Enters shadow 18:15:28 10° 315° (NW) 1,473 -0.5 -28.6°
